Find Luch

NORAD ID: 23426 Int'l Des: 1994-082 Owner: VKS Country: RU operational
HEOCIRCULAR

实时位置

正在加载3D地球...

关于 Luch

正在加载描述...

即将过境

Passes for default location (London). Set your location on the main map for personalized predictions.

高度历史

Loading altitude history...

两行轨道根数

1 23426U 94082A 26103.63653889 -.00000251 00000-0 00000+0 0 9998
2 23426 14.7519 355.0966 0004478 215.8165 144.1357 1.00171654114614
Epoch: Apr 13, 2026 • Age: 37 hours

当前状态

高度 35797.1 km
速度 3.07 km/s
星下点 -4.29°S, 77.03°W
发射日期 Dec 16, 1994
运行时间 31.3 years
类型 other

技术详情

分类 Payload
质量 2400.00 kg
干质量 2200.00 kg
总质量 2400.00 kg
长度 6.60 m
直径 4.10 m
跨度 16.00 m
形状 Cyl + 2 Pan + 2 Dish
制造商 NPOPMR
平台类型 KAUR-4 Al'tair
阶段状态 In Orbit
所有者/国家 VKS/RU

Most Searched